TITAN 3C TRANSTAGE DEB, 43456

Orbit data source: Space-Track

TITAN 3C TRANSTAGE DEB, 43456 is space debris in GEO originally from a launch on Sun, 09 Feb 1969 UTC launched from the Air Force Eastern Test Range (AFETR). Debris objects in space refer to the collection of defunct objects orbiting the Earth. Examples of debris include non-operational satellites, rocket bodies, and fragments generated from explosions, collisions, or faulty payload assembly.

Loading next visibility...
Identifier
43456, 1969-013P
Orbit
GEO
Country
Flag of USUS
Related business
Manufacturer
Martin Marietta
Mission
Spacecraft
Bus & Motor
Unknown
Mass
Unknown
Launch date (UTC)
1969-02-09 (58 years ago)
Launch vehicle
Unknown
Launch site
Air Force Eastern Test Range (AFETR)
Object type
Payload
Rocket body
Debris
Shape & HBR
Unknown shape, 1.1 m
Radar Cross Section
Medium (>0.1 m² and <1 m²)

Expand to show TLE details & history
Last TLE update: 2 days ago

TLE from 2 days ago
0 TITAN 3C TRANSTAGE DEB
1 43456U 69013P   26253.54590689 -.00000238  00000-0  00000-0 0  9999
2 43456   2.2044  54.5171 0794626  70.7085 298.3678  1.02657741  7609
Epoch: 2026-09-10T13:06Z
TLE epoch observation values (Epoch: 2026-09-10T13:06:06.355Z)
Latitude
-0.00001°
Longitude
-130.92331°
Altitude
33,792.749 km
Speed
3.2 km/s
True Right ascension
03h 40m 44s
True Declination
0° 00' 00"
Sunlit
Object was in daylight at epoch
Visualization orbit readout
Latitude
Unknown
Longitude
Unknown
Altitude
Unknown
Speed
Unknown
Apparent Right ascension
Unknown
Apparent Declination
Unknown
Sunlit
N/A
Visualization observer readout
Local Sidereal Time
10:10:39
Azimuth
Unknown
Elevation
Unknown
Doppler factor
Unknown
Orbital elements
Apogee altitude
38,430.296 km
Perigee altitude
31,833.32 km
Semi-major axis
41,509.945 km
Eccentricity
0.07946
Inclination
2.2044°
RAAN
54.5171°
Arg. of periapsis
70.7085°
True anomaly
289.98961°
Mean anomaly
298.3678°
Eccentric anomaly
294.21554°
Mean motion
0.25663 °/min
Orbital period
1,402.77 mins
BSTAR
0
Loading maneuver chart data...
Computing Atmospheric mass density...

Documentation

Showing up to 5 results
|